Theta_e
344 343 343 343 342 337 332 330 331 332 332 331 331 331 332 333 332 332 332 330 330 332 333 334 334 333 331 330 330 332 334 336 337 338 339 339 338 338 339 342 343 343 343 343 341 338 337 339 341 341 343 344 344 344 344 344 344 344 343 342 342 340 337 339 341 338 335 336 336 337 337 335 333 332 331 331 330 330 330 330 330 330 332 334 335
344 344 343 343 344 341 335 331 330 331 332 331 330 330 331 331 331 331 332 330 329 330 331 331 331 330 328 326 326 326 327 328 330 333 335 338 338 338 338 339 340 341 341 342 341 340 339 338 339 340 341 342 343 344 343 344 344 343 342 342 341 339 336 338 340 338 336 335 334 335 336 335 333 332 332 330 329 329 329 329 329 329 330 330 331
344 344 344 344 344 344 341 336 332 330 330 331 331 330 329 329 329 330 331 331 329 328 328 328 328 327 326 326 325 325 325 326 326 327 329 333 336 338 338 337 337 338 339 340 340 341 341 340 339 338 339 339 340 341 341 342 342 342 342 341 339 338 338 340 340 339 337 335 334 334 334 333 332 332 331 330 329 329 329 329 329 329 328 328 329
345 345 344 344 344 344 344 342 338 334 331 329 329 329 329 328 328 328 329 330 330 329 328 327 327 325 325 325 325 325 325 325 326 326 326 327 330 334 337 338 337 337 337 337 338 339 340 340 339 338 338 338 338 338 338 338 339 339 339 338 337 338 340 341 341 340 338 335 334 334 333 333 332 331 330 329 329 329 329 329 329 329 328 328 329
344 345 344 344 344 344 344 344 343 341 337 334 330 328 329 329 328 327 327 328 330 330 329 329 328 327 325 325 325 325 326 325 325 326 326 325 326 329 333 336 337 337 337 336 336 337 338 339 339 339 339 339 338 337 337 337 337 337 336 337 337 339 341 341 340 339 338 336 334 333 333 332 332 332 330 328 328 328 328 328 329 329 329 330 331
345 345 344 345 344 344 345 344 344 344 343 341 336 332 329 328 328 328 327 327 328 329 330 330 330 329 327 326 325 325 325 326 325 325 325 326 325 326 328 331 334 336 337 337 337 336 336 336 337 338 339 339 338 338 338 338 338 338 337 338 338 339 340 340 340 338 336 334 333 332 332 332 332 331 330 328 328 327 328 327 328 329 329 330 332
345 345 344 345 345 345 345 345 345 344 344 344 343 339 335 330 328 328 327 327 327 328 329 330 330 330 328 327 326 325 325 325 325 325 325 326 326 325 325 327 330 332 334 335 336 337 336 336 336 336 337 338 338 338 338 338 339 339 338 338 339 339 339 340 339 337 335 333 332 331 331 331 331 331 329 328 327 328 329 327 326 328 329 329 331
345 345 344 345 345 345 346 345 345 345 345 345 345 344 342 338 334 330 328 327 327 327 328 327 328 328 328 327 325 325 325 325 325 326 325 326 326 325 324 324 326 329 331 333 334 335 336 336 336 336 335 335 336 337 337 338 338 339 338 338 339 339 339 339 338 337 336 334 332 331 331 330 330 330 330 330 329 330 331 330 326 326 327 328 332
344 345 345 345 346 346 346 346 345 345 346 346 346 346 346 345 342 339 334 330 327 326 327 326 327 327 327 326 326 325 325 325 326 326 326 326 325 325 324 323 324 326 329 332 333 334 334 335 336 336 335 335 335 335 335 336 337 337 337 337 337 338 338 338 337 337 336 334 333 331 331 330 329 330 331 332 331 331 332 332 328 326 326 327 331
345 345 345 346 346 346 346 346 346 346 346 347 347 347 347 347 347 346 343 339 332 328 326 325 325 325 325 325 325 325 324 325 325 325 325 324 324 324 323 322 323 324 327 330 332 333 334 334 335 335 335 335 335 335 335 335 335 335 335 335 336 336 336 336 336 335 335 334 333 332 331 329 328 330 332 333 333 334 335 334 330 326 326 326 327
346 346 346 347 346 347 346 346 346 347 347 348 348 348 348 348 349 349 349 348 344 339 334 330 327 325 324 324 324 323 323 322 322 322 322 322 322 322 322 322 322 323 326 329 331 333 333 334 334 335 335 335 335 334 334 334 334 334 334 335 335 335 335 335 335 334 334 333 332 332 332 330 328 331 333 334 335 337 337 336 333 330 329 329 328
346 346 347 347 346 347 347 347 347 347 347 348 348 349 349 349 350 350 350 350 350 348 346 341 337 333 330 328 327 326 324 323 322 322 321 321 321 321 321 322 322 323 325 328 331 333 333 333 334 335 335 335 334 334 334 333 333 333 333 333 334 334 334 334 333 332 331 331 331 331 332 331 330 331 334 336 338 338 338 338 338 337 336 335 334
347 347 347 347 347 348 347 347 348 348 348 349 349 349 350 350 351 351 351 352 352 352 351 349 347 344 341 337 334 331 329 327 326 325 324 323 323 323 323 323 323 325 326 329 331 333 333 333 334 334 334 335 335 335 334 334 333 333 332 332 332 332 333 333 333 332 331 329 329 330 330 331 332 332 335 340 341 340 339 338 341 343 342 340 338
348 348 348 348 348 348 348 348 349 349 349 349 350 350 350 351 352 351 352 352 353 353 353 353 352 351 349 346 342 338 335 332 331 330 328 327 326 326 326 326 326 327 328 330 332 333 334 334 334 334 334 334 334 335 334 334 333 333 332 332 332 332 332 333 333 332 331 329 328 328 328 331 334 334 338 343 343 341 339 339 341 344 344 342 339
349 349 349 349 349 349 349 349 350 350 350 350 350 351 351 352 352 352 353 353 353 354 354 354 354 354 352 351 349 344 339 335 334 333 332 332 331 330 330 330 330 331 331 332 333 333 334 334 334 334 334 334 334 334 334 333 333 333 332 332 332 332 332 332 333 332 332 330 329 329 329 331 335 336 340 344 345 342 341 341 341 343 343 342 339
350 350 350 350 350 350 350 351 351 351 351 351 351 352 352 352 352 353 354 354 354 355 355 355 355 355 354 354 353 349 343 337 337 336 335 335 335 334 334 334 334 334 334 334 334 334 335 335 335 334 334 334 334 333 333 333 333 332 332 331 331 332 331 331 331 332 332 331 330 330 330 331 334 337 340 344 344 343 343 343 342 342 343 342 340
352 351 351 351 352 352 351 352 352 352 352 353 353 353 354 354 354 354 354 354 355 355 356 356 356 356 356 356 355 353 346 340 339 338 336 337 337 336 336 336 335 336 335 335 335 335 335 335 335 335 335 334 334 333 333 334 334 333 332 331 331 331 330 329 330 330 331 331 331 331 331 331 332 334 337 339 341 343 344 342 340 341 343 342 341
354 354 353 353 353 353 353 353 354 354 354 354 355 355 354 353 354 355 355 355 355 356 357 357 357 357 358 359 358 356 349 342 340 340 338 339 340 338 338 337 337 336 337 336 337 336 336 336 336 336 335 334 334 333 334 334 334 333 332 332 332 331 329 327 328 329 329 330 331 332 332 331 332 333 334 335 338 341 341 340 340 342 344 344 343
355 356 356 356 355 355 355 355 355 355 355 355 356 356 355 352 352 354 355 354 354 355 356 357 357 358 358 360 360 359 354 347 343 342 341 341 341 341 340 339 338 337 337 338 338 338 337 336 337 337 336 334 334 333 333 334 335 333 333 334 333 331 328 327 328 329 329 330 331 331 331 332 333 333 334 335 338 340 340 340 341 343 344 344 345
355 356 356 357 357 357 357 358 357 357 357 356 357 357 356 354 353 354 355 354 354 355 356 356 357 358 358 360 361 361 358 352 345 343 342 343 343 343 342 341 339 338 338 338 338 339 338 337 337 337 335 333 332 332 333 334 333 333 334 335 333 329 326 328 329 330 330 331 331 331 331 331 333 335 335 336 338 339 339 339 341 342 343 344 347
353 355 356 356 356 357 358 358 359 358 358 358 357 357 356 355 354 355 355 356 356 357 357 356 356 358 359 360 361 361 361 358 352 346 344 344 344 344 344 343 340 339 339 339 339 340 340 339 337 335 333 332 332 333 334 334 335 336 335 334 331 329 329 329 330 331 333 333 332 331 331 331 332 334 335 336 337 337 338 339 341 341 343 346 348
350 354 357 357 356 356 356 356 357 357 357 357 357 356 356 355 356 356 356 357 358 358 358 358 357 359 361 361 361 362 362 361 358 354 350 346 345 345 345 343 342 342 342 341 340 341 341 340 337 334 333 332 332 334 336 338 339 340 338 334 332 333 333 333 334 336 337 336 334 333 332 331 332 333 333 334 335 336 338 341 342 344 345 348 350
344 349 352 354 357 357 357 356 356 356 356 356 355 356 356 356 357 357 357 358 359 359 360 359 360 361 362 362 362 362 362 362 361 359 356 351 348 346 346 344 345 345 344 343 342 342 342 341 338 336 334 334 334 335 337 340 343 343 342 340 339 341 341 341 342 343 343 341 340 338 336 334 334 334 333 335 336 338 341 343 345 346 348 349 351
339 342 345 349 354 357 358 359 359 358 358 358 357 357 357 358 358 359 359 359 360 360 360 361 361 362 363 363 363 363 363 363 362 362 360 357 353 349 346 346 346 346 346 344 343 343 343 343 342 340 338 337 337 338 339 342 345 346 346 345 345 347 348 347 347 348 348 347 347 345 342 339 338 337 336 337 339 341 344 346 347 348 349 350 352
335 336 340 345 349 353 356 358 360 361 361 362 362 361 360 360 360 359 359 359 360 361 360 361 362 362 363 363 363 364 364 363 363 362 361 360 358 354 350 348 348 348 347 346 345 344 344 344 345 345 345 344 343 344 344 345 346 347 347 348 349 350 350 350 350 351 351 351 350 349 347 345 343 343 342 343 344 345 346 347 348 349 350 351 353
334 333 337 343 345 348 351 355 358 361 362 362 363 363 363 362 361 361 360 360 360 361 361 361 362 362 363 363 364 364 364 363 363 362 362 361 361 359 356 353 351 350 349 347 347 347 346 347 348 349 349 349 349 349 348 348 349 349 350 350 350 351 351 351 352 353 353 353 353 352 351 350 349 349 348 347 348 347 348 349 350 351 353 354 355
337 335 337 341 343 346 350 353 356 358 359 360 361 362 363 363 362 362 361 361 361 361 362 362 363 362 363 363 363 364 364 364 363 363 362 362 361 360 359 357 355 353 351 349 349 349 349 349 350 351 351 352 352 352 351 351 351 351 350 350 350 350 351 352 352 353 353 354 354 354 354 354 354 353 351 349 348 349 350 352 353 354 355 356 356
339 339 339 340 341 344 349 353 356 358 359 360 362 363 363 363 361 360 359 359 360 361 361 362 363 362 363 363 363 363 364 364 364 363 362 362 362 361 361 360 358 356 353 350 350 350 351 351 351 351 352 353 353 353 353 352 352 351 350 350 349 350 350 351 352 352 352 353 354 355 356 356 356 355 353 351 350 351 353 355 356 356 357 357 357
339 339 340 340 341 342 345 350 356 359 361 362 363 365 364 362 359 357 357 357 357 358 359 361 361 361 361 361 361 362 362 362 363 362 362 361 361 361 361 360 360 359 357 354 352 352 352 352 352 352 352 352 352 352 352 352 351 351 351 350 349 349 349 350 350 351 351 353 354 355 356 357 357 357 355 353 352 353 355 357 358 358 358 358 357
338 339 340 340 341 342 342 345 352 358 361 361 361 362 362 360 358 357 356 357 358 358 359 360 360 360 362 362 362 361 361 361 361 362 361 361 361 361 361 361 360 360 359 357 355 354 354 353 352 352 352 352 352 351 351 351 351 351 350 350 349 349 348 348 349 351 352 353 354 355 356 355 355 355 356 355 355 355 357 358 358 359 359 358 356
338 339 340 340 341 342 342 343 347 354 359 359 358 356 356 357 358 357 357 358 359 359 360 360 361 362 362 363 363 362 362 362 362 362 362 361 361 361 361 361 361 360 359 358 357 356 355 355 354 353 353 353 353 352 351 351 351 350 350 350 350 349 348 349 351 352 353 354 355 354 353 351 349 350 352 353 355 356 356 356 358 359 359 357 355
337 339 339 340 341 342 342 342 344 349 356 359 359 357 355 355 356 357 358 360 360 361 362 362 362 362 362 363 363 363 363 363 363 363 363 362 362 362 362 361 361 361 359 359 358 357 356 355 355 354 354 354 354 353 353 352 351 350 349 349 348 347 347 349 351 353 355 356 355 354 353 351 351 352 352 351 351 353 354 356 357 358 358 356 354
335 337 338 340 341 342 343 343 343 346 352 358 361 362 360 360 359 359 361 362 362 362 362 362 362 362 363 363 363 363 363 363 363 363 363 363 363 363 362 362 362 361 360 359 358 358 357 357 356 356 355 354 354 354 354 354 353 351 350 349 347 346 347 350 352 354 356 356 355 353 352 352 352 353 353 353 352 352 353 355 356 357 356 354 353
332 335 337 338 340 341 342 344 344 345 348 352 359 363 363 363 363 364 364 364 364 364 363 363 363 363 362 363 363 363 363 363 363 364 364 363 363 363 362 362 361 361 360 360 359 359 358 358 357 356 356 355 355 355 355 355 353 352 350 349 348 348 350 351 353 355 356 356 354 353 352 352 353 353 353 352 351 351 353 353 355 356 356 354 352
328 332 334 336 338 339 341 342 344 346 346 348 354 360 363 363 364 364 365 365 365 365 364 363 363 363 362 362 362 362 363 364 363 364 364 363 363 363 362 362 362 362 361 361 360 360 359 358 358 358 357 356 356 355 355 354 353 352 351 349 350 351 351 353 355 356 357 356 354 353 352 353 353 353 352 352 351 351 353 354 356 356 356 354 353
325 328 332 335 337 338 339 340 342 344 346 346 349 354 359 362 363 363 364 364 365 365 364 363 363 363 364 364 364 364 364 364 364 364 364 364 363 363 362 362 363 363 363 362 361 361 360 359 359 358 358 357 356 356 355 354 353 352 352 351 351 352 352 354 355 356 356 356 355 353 353 354 353 352 353 353 353 353 354 355 356 356 356 355 354
322 324 328 333 335 337 338 339 340 341 343 345 346 349 352 357 360 362 362 362 362 362 361 361 363 364 364 364 364 364 365 365 365 365 365 364 364 364 363 363 363 363 364 364 363 363 362 361 360 360 359 359 358 357 356 355 354 354 353 352 352 353 353 354 356 356 358 357 355 355 354 353 353 353 353 354 355 355 356 356 357 356 356 356 355
321 322 325 329 333 335 337 338 339 339 340 342 344 346 347 350 354 358 360 361 361 360 359 360 362 364 363 363 364 365 365 365 366 366 365 365 365 365 364 364 364 364 364 364 365 364 364 363 362 361 360 360 359 358 357 356 356 355 354 352 352 353 354 355 357 358 359 357 356 355 355 354 354 355 356 356 356 357 357 357 356 356 355 355 355
321 321 323 327 331 333 335 337 338 339 339 340 341 343 344 346 348 350 354 357 359 360 360 360 361 362 361 362 363 364 364 364 364 365 365 366 366 365 365 365 365 365 365 365 365 365 364 363 363 363 362 362 361 360 359 358 357 356 355 354 354 354 355 357 358 358 358 358 357 355 355 355 355 356 357 358 358 357 357 356 355 355 354 354 354
320 320 322 326 329 332 333 334 335 336 337 338 340 341 342 343 344 345 347 349 352 354 356 357 358 359 359 359 359 360 362 363 363 363 364 365 365 365 366 366 365 365 365 365 365 365 364 364 364 363 363 363 362 362 361 360 359 358 357 356 356 355 356 357 358 357 355 356 356 355 354 355 356 356 357 357 357 356 355 354 354 354 354 353 350
320 320 322 326 329 330 331 331 331 332 333 335 337 338 339 341 342 344 345 345 347 348 349 350 352 353 355 355 355 356 357 359 360 361 362 364 364 365 366 365 365 365 365 365 365 365 365 365 364 363 364 364 363 363 362 361 360 359 358 357 357 357 357 359 359 356 353 354 355 355 354 354 354 355 355 354 353 352 352 352 352 352 351 350 348
319 320 321 324 328 329 329 328 328 328 329 332 334 335 336 337 339 341 343 345 346 347 347 347 348 349 350 351 353 353 354 355 356 358 359 360 362 363 363 363 363 364 364 365 365 365 365 366 366 365 364 364 363 363 362 362 361 359 358 358 358 358 359 360 358 356 355 355 354 353 353 353 354 354 354 353 352 351 351 350 349 348 348 347 345
319 319 320 323 327 329 328 327 327 327 329 331 333 334 334 334 335 336 339 341 344 346 347 348 348 348 348 349 350 351 352 353 354 355 355 356 357 358 360 361 362 362 363 363 364 364 364 365 366 366 365 364 364 363 362 362 361 360 359 359 359 359 359 359 358 357 357 355 353 352 353 354 354 354 353 352 351 350 349 348 347 347 347 344 340
319 319 319 321 325 328 328 327 326 327 329 331 332 332 333 332 332 333 334 337 339 342 344 346 346 347 348 348 349 350 351 352 353 353 354 355 355 356 357 358 360 360 361 361 361 362 362 363 364 365 365 364 364 363 363 362 361 360 360 360 359 359 358 358 356 356 356 355 353 353 353 354 353 353 352 352 351 349 348 347 346 345 343 341 338
319 319 319 320 323 326 327 327 326 327 329 330 330 331 331 331 331 331 332 333 334 337 339 341 343 344 345 346 347 349 349 350 351 352 353 353 354 354 355 356 357 358 358 358 359 359 359 359 360 362 362 362 363 364 363 361 361 361 360 361 360 358 357 356 356 355 355 354 353 352 352 352 351 351 351 350 348 347 345 344 343 342 340 338 335
318 319 319 320 321 323 326 326 326 326 327 328 329 329 329 329 329 328 328 329 331 332 335 337 339 341 343 344 345 346 347 347 348 348 348 349 351 352 353 354 355 356 356 357 357 357 357 357 358 358 359 360 362 363 362 361 361 360 359 358 357 355 354 354 354 354 353 352 350 350 350 350 349 349 348 347 346 344 342 340 338 336 334 332 331
317 317 318 319 320 322 325 325 325 325 326 327 327 327 326 326 326 326 325 326 327 329 332 334 336 338 340 341 342 343 343 344 344 344 345 346 347 347 348 350 351 352 353 353 353 354 354 354 354 354 354 355 357 358 359 359 359 359 357 355 354 353 353 353 352 351 350 349 348 348 348 348 347 346 345 343 342 339 336 334 332 331 331 331 332
315 316 318 319 319 321 323 324 323 323 324 324 325 324 324 324 324 324 324 324 325 327 329 330 332 334 335 337 338 338 339 340 341 341 342 341 341 340 341 342 343 345 346 347 348 349 349 349 348 349 350 350 348 348 351 353 353 353 350 349 348 349 349 349 348 346 345 346 346 346 344 343 341 340 338 336 335 333 332 331 331 331 332 332 332
315 316 318 319 320 321 322 322 322 321 321 322 322 323 322 322 322 322 322 322 323 324 325 326 327 328 328 330 331 333 334 336 337 337 336 334 333 333 333 333 334 335 337 339 340 341 341 341 340 341 342 342 340 341 343 346 346 346 344 343 343 344 345 344 344 344 342 341 340 339 336 335 334 333 333 332 332 332 331 331 332 331 331 330 330
316 317 318 320 320 321 321 321 320 320 319 320 320 321 321 321 321 321 321 320 321 322 323 323 323 324 324 324 325 326 328 330 331 332 332 330 329 328 327 327 328 330 330 331 332 333 333 333 333 333 335 336 337 339 341 342 342 341 340 339 338 338 338 338 338 338 337 335 334 333 331 331 332 333 332 331 330 329 329 329 329 328 327 327 326
316 317 318 319 320 320 320 320 320 319 319 319 319 320 320 319 319 319 319 319 319 320 320 321 322 322 322 322 321 321 322 323 324 326 327 328 328 327 325 324 325 326 327 328 328 329 330 330 331 331 331 332 333 334 336 337 338 338 337 334 332 331 331 331 331 331 331 331 331 331 331 331 331 330 330 328 327 326 325 325 325 325 324 324 323
Wind_Speed
40 38 35 33 32 32 33 34 35 35 34 34 33 31 30 29 27 25 25 24 23 22 21 20 20 19 17 16 15 15 14 14 14 14 14 14 13 13 13 13 13 12 11 11 11 11 14 16 16 15 14 14 13 13 12 12 12 12 12 12 13 13 14 13 15 16 14 11 10 9 10 10 9 9 8 8 9 9 10 11 12 13 12 11 10
42 40 37 36 34 32 32 33 35 36 36 35 34 33 32 31 29 28 26 26 25 23 22 21 21 20 18 17 16 15 15 14 15 15 15 16 15 15 14 14 14 14 13 13 13 13 14 15 16 16 17 17 17 16 16 15 15 15 14 15 15 15 15 14 15 18 17 13 11 9 9 10 10 9 9 9 10 10 11 12 12 12 12 12 11
44 41 39 38 36 34 33 33 34 35 36 37 36 35 34 33 31 30 29 27 27 25 24 23 22 21 20 19 18 17 17 16 16 16 16 16 16 16 16 16 15 15 15 15 14 15 15 16 16 16 17 18 19 18 18 18 18 18 17 17 17 16 15 15 16 18 19 17 14 11 11 11 11 10 10 10 10 11 13 14 14 13 13 13 12
45 44 42 40 38 36 35 34 34 35 36 37 37 37 36 35 34 33 31 30 29 28 27 26 25 24 23 22 21 20 19 18 18 17 17 17 17 18 18 18 17 17 17 16 16 16 17 17 16 16 16 17 18 18 18 18 19 19 19 18 18 16 15 16 17 18 20 20 17 15 14 13 12 11 11 10 9 11 13 15 15 14 14 13 12
47 46 44 42 41 39 38 37 36 36 35 36 37 37 38 37 36 35 34 33 32 30 30 29 28 27 26 25 24 22 21 21 20 20 19 19 19 19 19 19 19 19 18 18 18 18 18 18 17 17 17 18 18 18 18 19 19 19 19 19 18 17 17 17 18 18 20 21 20 18 17 15 14 13 12 11 11 11 13 15 15 15 14 13 12
48 47 46 45 43 42 40 39 38 37 36 36 36 37 38 39 39 38 37 36 35 34 33 33 32 31 30 28 27 26 25 24 24 23 22 21 21 21 21 21 21 21 21 20 20 19 19 19 19 18 19 19 19 19 19 19 20 20 20 19 18 18 18 18 18 18 19 20 21 21 19 17 15 14 13 12 12 13 15 16 15 15 15 14 13
48 48 47 46 45 44 42 41 39 38 36 35 35 36 37 39 40 40 40 39 38 37 36 36 35 35 34 32 31 30 29 28 28 27 26 25 24 23 23 23 23 23 23 23 22 21 21 21 20 20 20 20 20 20 20 20 20 20 20 19 18 18 18 18 18 18 19 20 21 21 20 18 16 15 14 13 13 14 16 17 17 17 17 16 14
48 48 48 47 46 45 43 41 40 38 37 36 36 36 37 38 39 40 41 41 41 40 39 38 38 38 37 36 35 34 33 32 31 30 29 28 27 26 25 24 24 24 24 24 24 24 23 23 22 22 21 21 21 21 21 21 21 21 20 20 19 19 19 19 19 19 20 21 21 21 20 19 18 16 15 14 13 13 15 17 19 19 19 17 15
48 48 48 48 46 44 43 42 41 39 38 37 37 37 36 36 37 38 40 41 42 42 42 41 41 41 40 39 39 38 37 36 35 33 32 31 30 29 27 26 25 24 24 24 25 25 25 24 24 23 23 22 22 22 22 22 22 22 21 21 21 21 20 20 20 21 21 22 21 20 20 21 19 16 15 14 13 13 15 17 19 19 19 18 15
48 48 48 47 46 44 43 42 41 40 39 38 37 37 36 36 36 36 37 39 40 42 42 43 43 43 43 42 42 42 41 40 37 35 34 33 32 31 30 28 27 26 25 25 25 25 26 26 25 25 24 24 23 23 23 23 23 23 22 22 22 22 22 22 22 22 23 23 22 21 22 22 20 17 17 15 14 14 15 17 19 19 19 19 15
48 48 48 47 45 44 44 43 42 41 40 38 37 37 36 36 36 35 35 35 37 38 40 42 43 43 42 42 42 42 42 40 38 36 34 33 32 32 31 30 29 28 27 26 26 26 26 26 26 26 26 25 25 24 24 23 23 23 23 23 23 23 23 23 23 23 23 24 23 22 23 24 22 19 18 16 14 14 15 17 18 19 19 20 18
47 48 47 46 46 45 44 44 43 42 41 39 38 37 37 37 37 36 35 35 34 35 37 39 41 41 41 41 41 41 40 39 37 35 33 32 31 31 31 30 30 29 28 27 27 27 27 27 27 26 26 26 26 25 25 24 24 23 23 23 23 23 23 24 24 24 25 25 25 24 24 24 23 21 19 17 15 16 17 18 18 19 20 21 21
46 47 47 46 46 45 44 44 43 42 41 39 38 38 38 38 37 37 36 35 34 34 35 36 37 38 39 40 40 40 39 38 36 34 33 31 31 31 31 31 31 30 29 28 28 28 28 28 28 27 27 26 26 26 26 25 25 24 24 24 24 24 24 24 25 25 25 26 27 26 25 25 25 23 19 18 18 18 19 19 19 21 22 23 22
45 46 46 46 45 45 44 44 44 42 41 40 39 39 39 38 37 36 36 35 36 35 35 35 36 36 37 38 39 40 39 38 36 34 33 31 31 31 31 32 32 31 30 29 29 29 29 29 29 28 27 27 27 27 27 26 26 25 25 25 25 25 24 24 24 24 25 26 28 29 27 25 26 25 21 21 21 20 20 21 22 23 24 24 23
44 45 45 45 44 44 44 44 43 42 41 41 41 40 39 38 37 36 36 36 36 35 35 35 35 36 36 37 37 38 39 38 37 35 34 32 31 31 32 32 32 31 30 30 29 29 29 29 30 29 28 28 28 28 28 27 27 27 27 27 26 25 24 23 23 23 24 26 28 29 28 27 26 26 24 24 23 22 22 23 24 26 26 25 24
43 43 44 44 43 43 43 43 42 42 41 41 42 41 40 40 38 36 36 36 36 36 36 36 35 36 36 36 37 38 38 38 37 36 34 33 32 32 32 32 32 31 31 30 30 29 29 29 30 30 30 29 28 28 28 28 28 28 28 27 27 26 25 24 23 23 24 26 27 28 29 28 28 28 27 26 24 23 23 25 26 27 26 26 25
40 41 42 42 42 41 42 42 42 41 41 41 41 39 38 38 38 38 38 37 36 36 35 35 35 35 35 36 37 38 38 37 37 36 35 33 33 33 32 32 32 32 31 30 30 30 29 30 30 30 30 30 28 28 27 28 28 28 28 28 27 27 27 26 25 25 25 26 27 28 29 29 29 29 28 27 25 24 25 27 27 26 24 25 26
34 38 39 40 40 40 40 41 41 40 40 40 39 37 34 32 34 36 38 39 39 38 37 36 36 35 35 35 35 37 38 37 36 36 34 33 33 33 32 32 32 32 32 31 31 31 31 30 30 30 31 30 28 27 27 28 28 28 29 28 28 28 28 27 26 26 25 26 27 27 28 29 29 28 27 26 25 25 26 27 25 23 24 25 26
28 32 35 36 37 39 40 40 40 40 39 38 37 38 36 32 29 29 31 32 33 35 37 38 39 39 37 36 35 35 36 36 36 36 34 34 34 34 33 33 33 33 32 32 31 32 31 31 31 31 31 30 29 28 28 29 29 29 29 29 30 30 29 27 27 26 26 26 26 26 26 26 26 26 25 24 23 23 24 24 23 23 25 25 25
22 27 31 34 34 35 37 38 39 39 39 37 35 36 37 36 31 27 26 25 25 29 33 34 37 39 40 39 37 35 35 35 35 36 35 34 34 34 34 34 34 33 33 32 32 32 32 32 32 31 31 30 29 28 28 29 30 30 30 30 31 31 28 27 27 27 27 27 27 25 25 24 23 23 23 23 23 23 23 23 23 24 25 25 24
14 20 25 30 34 34 34 35 36 37 38 37 36 35 34 35 32 27 25 25 26 29 32 32 33 35 37 39 40 37 34 33 33 34 35 35 35 35 36 35 34 33 32 32 32 32 32 32 32 31 30 30 28 27 27 28 29 29 30 31 31 29 27 27 28 27 27 28 28 27 26 24 24 24 24 24 24 24 25 25 24 25 25 24 23
6 14 19 24 30 33 34 35 37 38 38 38 37 36 34 34 33 28 24 25 27 31 34 34 33 32 33 36 39 39 36 33 31 31 33 34 35 35 36 36 34 33 33 33 33 32 31 32 32 31 30 29 27 25 24 25 26 26 27 28 28 26 25 26 27 26 26 27 27 28 28 27 27 27 27 27 27 26 27 26 25 25 24 23 21
6 9 14 17 23 28 30 32 35 37 38 38 36 35 33 34 34 30 27 27 29 32 35 37 36 35 33 34 38 40 38 35 32 30 30 31 33 34 36 36 34 33 33 34 33 32 31 31 31 31 30 29 28 25 24 23 23 23 22 22 23 22 21 22 24 25 25 26 27 28 29 29 29 29 29 29 28 28 27 27 26 25 24 22 21
8 8 10 13 16 20 22 25 28 31 33 34 34 32 30 31 32 31 29 29 31 33 35 36 37 37 36 36 38 40 40 37 33 30 29 30 30 32 34 35 34 34 34 34 33 32 31 30 30 30 30 30 29 27 25 24 23 22 21 20 20 20 20 22 24 24 25 27 28 29 30 31 31 31 31 30 29 28 28 27 26 24 23 22 22
9 8 9 11 15 18 19 20 23 24 26 28 31 31 30 29 29 29 30 31 33 35 35 35 36 37 37 38 39 40 39 38 35 31 29 29 29 30 31 33 33 33 34 34 33 32 31 29 28 28 28 28 28 28 27 26 25 23 22 22 22 22 23 24 25 25 27 29 30 30 31 31 31 31 30 29 28 28 27 25 23 23 23 22 23
10 9 9 10 13 18 19 20 21 21 22 24 27 28 29 29 28 27 29 32 34 36 38 38 38 39 39 39 39 39 39 39 37 34 32 30 30 29 30 31 31 32 33 34 33 31 29 28 28 28 27 28 28 28 28 27 26 26 25 25 26 26 25 26 26 27 29 30 31 31 32 31 30 30 30 29 28 27 24 22 22 22 22 23 24
11 10 10 10 11 15 18 20 21 21 23 25 27 28 30 30 29 28 29 32 34 37 40 42 42 43 41 40 39 38 39 39 38 37 35 33 31 30 30 30 31 32 33 34 33 32 30 29 28 28 29 30 30 30 30 29 29 29 29 29 29 28 28 27 28 29 30 30 31 31 31 31 31 31 30 30 29 25 21 21 22 22 22 23 25
13 11 11 10 10 12 15 18 20 21 23 24 26 28 30 30 30 30 32 33 35 37 39 42 43 42 41 40 37 36 37 39 39 38 37 33 30 29 29 29 30 32 33 34 33 32 30 29 30 30 31 33 33 33 33 32 32 32 32 31 31 30 30 29 30 31 31 31 31 31 31 31 32 32 31 31 29 24 21 22 23 23 23 24 25
14 14 13 12 10 11 14 17 18 19 21 23 24 25 26 27 28 31 33 35 36 36 37 38 38 38 38 38 36 34 34 34 32 32 32 30 28 27 27 27 28 30 30 30 31 31 30 31 32 33 34 34 35 35 35 34 34 34 34 33 32 32 31 32 32 32 31 30 30 30 30 29 30 30 31 31 29 26 24 24 24 25 25 25 24
15 15 14 13 12 12 13 15 18 18 19 21 22 22 22 23 26 29 33 36 37 37 36 37 36 36 38 38 36 34 32 28 26 28 29 28 28 28 26 25 26 26 26 27 30 32 33 33 34 35 36 36 36 36 36 35 35 35 35 34 34 33 33 34 33 32 30 30 30 31 30 29 29 29 31 32 32 30 28 27 27 28 27 25 23
16 16 15 14 14 13 13 13 16 18 19 20 20 20 21 22 24 27 31 35 37 37 36 37 37 38 41 40 38 37 35 32 31 32 31 29 28 28 27 27 27 26 26 27 30 33 33 34 35 36 37 37 37 37 36 35 36 36 35 35 35 35 35 35 33 32 31 32 33 33 31 30 29 29 30 31 33 34 33 31 31 29 26 22 21
16 16 16 15 15 14 13 12 13 16 18 19 19 20 21 22 24 27 29 33 36 36 35 36 36 38 40 40 40 39 39 37 36 35 33 31 29 27 27 27 27 26 27 29 31 33 34 34 35 36 36 37 38 37 36 35 35 35 35 35 35 35 34 33 32 32 32 33 34 33 31 30 29 28 29 29 32 35 36 34 32 28 23 21 21
15 15 16 16 16 15 13 11 11 15 18 19 19 20 21 22 23 25 27 30 32 33 34 35 35 36 37 39 40 40 39 38 36 35 35 34 31 29 28 28 28 28 30 31 33 35 35 35 36 36 36 37 37 36 35 34 34 34 34 35 34 33 32 32 32 32 33 34 33 32 30 29 28 28 28 28 30 33 35 35 33 27 22 21 22
14 15 16 16 16 15 13 11 11 14 17 19 19 19 20 20 20 21 24 26 28 31 33 34 34 34 35 36 38 39 39 38 37 37 37 37 34 32 30 30 31 32 33 34 36 36 36 36 36 36 36 36 36 35 33 33 34 34 34 33 32 32 33 33 34 34 35 35 34 33 31 30 29 28 28 27 29 32 34 35 33 28 24 24 25
14 15 15 15 15 14 14 13 13 14 16 18 19 20 20 20 21 21 23 25 27 28 30 31 31 31 32 33 34 36 37 39 40 40 40 39 37 35 34 34 35 36 37 38 38 38 38 38 37 36 35 35 36 35 33 32 34 34 34 33 34 34 34 35 35 36 36 36 35 33 32 31 30 30 30 30 30 33 34 34 33 31 28 27 26
15 16 16 16 16 15 14 13 13 14 15 17 19 21 22 22 23 23 24 24 26 27 28 29 29 30 32 33 34 35 37 39 40 40 40 40 39 39 38 39 39 39 39 39 39 40 40 39 38 36 35 35 36 35 33 33 34 34 34 34 35 36 36 36 37 37 36 36 35 33 33 32 31 31 31 31 31 31 31 32 32 32 30 29 27
16 17 16 16 17 16 15 14 14 14 15 16 18 21 23 24 25 26 26 26 27 28 29 30 30 31 33 33 34 35 36 37 38 39 40 40 41 42 42 41 41 41 41 41 40 40 41 40 40 38 37 36 36 36 35 35 35 34 34 35 36 37 37 36 36 36 36 36 35 33 32 31 29 27 27 27 28 28 28 29 31 31 29 29 29
17 17 17 16 17 17 17 16 15 14 15 16 17 20 22 25 27 28 29 29 29 30 31 32 32 33 34 34 34 35 36 36 36 38 39 41 42 43 43 43 42 43 43 43 42 41 40 40 40 40 39 38 37 37 36 36 35 34 34 35 35 36 36 36 36 36 36 35 34 32 29 27 25 24 24 25 26 27 28 31 32 31 29 29 28
18 18 17 16 16 16 17 17 17 16 15 15 16 18 20 23 26 28 31 32 33 33 33 33 33 34 34 34 34 36 37 37 37 38 38 39 41 41 42 43 44 44 44 45 44 42 41 40 40 40 40 40 39 38 37 36 35 34 34 34 35 36 37 37 37 35 33 33 33 30 27 25 25 24 24 24 25 26 29 31 31 30 28 27 25
18 19 18 17 16 15 15 16 17 17 17 16 15 16 18 20 22 25 28 31 34 35 35 35 35 35 34 32 33 35 36 37 37 36 36 38 39 40 41 43 45 45 45 45 45 44 42 40 39 40 41 41 40 39 37 36 35 34 34 34 36 37 37 37 36 33 31 31 30 28 27 28 26 24 22 22 22 23 26 28 28 27 26 24 22
18 19 19 17 16 15 15 15 17 18 19 19 17 16 16 17 19 21 23 26 29 32 34 35 36 35 33 31 30 31 33 34 34 34 35 36 38 39 41 42 43 45 46 46 46 46 44 42 40 40 41 41 41 39 37 35 34 34 34 35 37 38 37 36 35 33 31 30 30 29 29 29 27 24 22 21 22 22 23 23 22 22 22 21 20
18 19 19 18 16 15 16 17 18 19 21 21 19 17 16 16 17 19 20 22 23 26 28 31 32 32 32 31 31 30 30 30 31 31 33 34 36 38 40 40 40 42 45 46 46 46 47 45 44 42 42 42 41 40 39 37 35 35 35 35 36 37 36 35 35 33 32 31 31 30 29 28 26 24 22 20 19 19 18 18 19 19 20 20 20
17 18 19 18 17 16 16 18 19 19 21 22 21 20 19 17 16 17 20 21 22 23 25 26 28 28 29 30 30 29 28 28 29 29 29 30 32 35 38 39 40 40 42 44 44 45 45 46 46 45 44 43 42 41 41 39 36 35 35 35 36 36 36 35 35 34 33 30 28 27 27 27 25 23 21 18 17 16 16 17 19 20 21 20 19
16 17 18 18 17 16 16 18 18 19 20 21 21 21 20 18 16 16 17 19 21 23 24 25 26 27 27 27 27 25 25 26 27 29 29 29 30 33 36 39 40 40 42 44 45 44 44 45 46 46 45 43 41 42 43 41 38 36 35 35 36 35 34 33 32 31 30 27 25 24 25 25 23 21 19 17 16 16 17 19 20 21 20 19 18
15 16 17 17 17 16 16 17 18 18 19 20 20 20 19 18 16 15 15 17 19 19 20 22 23 24 24 24 23 22 22 22 24 26 28 29 30 32 33 35 37 39 42 44 45 44 42 41 41 42 43 42 42 43 44 42 38 36 35 35 34 32 29 28 27 26 25 24 22 22 22 21 20 18 17 15 14 15 16 18 19 18 18 17 17
14 14 15 15 15 15 16 16 17 18 18 19 18 18 18 18 17 15 15 15 16 16 17 17 18 19 20 21 21 20 20 20 22 23 24 26 29 31 32 33 35 37 39 42 43 42 39 37 37 39 41 42 43 45 44 41 38 35 32 30 27 25 23 24 25 26 25 23 20 18 18 18 18 17 15 14 14 15 16 17 17 17 17 16 16
12 12 12 13 13 14 15 16 16 16 16 17 17 17 16 16 16 15 14 14 14 14 14 14 14 15 16 17 18 18 18 18 19 20 22 24 27 29 30 32 34 36 37 38 38 38 36 34 35 37 38 39 41 42 40 37 34 31 28 25 24 24 24 25 26 25 23 21 18 16 16 16 17 17 16 15 15 16 16 16 16 16 15 15 15
11 11 10 10 11 12 14 14 14 14 14 14 15 15 15 15 14 13 12 12 11 11 11 11 11 12 12 13 15 16 16 16 17 18 20 23 24 24 24 25 27 29 31 32 32 33 33 31 31 33 35 34 32 31 30 28 27 25 24 24 25 25 25 25 24 22 20 19 17 16 15 14 14 15 15 15 14 15 15 15 15 15 15 15 15
9 9 9 9 10 11 12 12 12 12 12 12 12 13 13 13 12 11 11 10 9 9 8 7 7 7 7 9 10 12 13 15 16 17 18 18 17 16 17 17 18 19 21 23 24 24 24 23 23 25 27 25 22 21 22 24 23 22 22 22 22 22 22 22 22 21 19 17 14 13 13 12 12 13 13 13 13 13 13 13 13 14 14 15 15
7 7 7 8 9 10 10 11 11 10 10 9 10 10 11 11 11 11 10 8 7 6 6 4 3 2 1 1 2 4 7 9 10 12 13 13 11 11 11 11 12 13 14 15 16 16 17 17 18 19 20 21 22 22 23 24 23 22 21 19 19 20 20 20 21 21 21 19 16 13 10 10 10 10 10 10 11 11 11 11 12 13 13 13 13
5 5 5 6 7 7 7 7 8 8 7 7 8 9 9 9 9 8 7 6 5 4 3 2 0 2 4 5 7 8 8 8 8 9 10 10 10 11 12 14 14 15 16 17 18 20 21 21 22 23 23 25 26 27 26 25 25 24 22 21 20 20 21 22 22 22 21 21 19 15 12 10 10 11 11 11 11 11 11 11 11 11 12 12 12
Wind_Direction
228 228 228 229 230 230 230 230 230 230 231 231 231 231 230 228 227 227 226 226 226 227 226 224 221 222 226 228 231 235 237 240 243 246 249 250 249 246 241 238 239 238 236 236 234 232 231 231 230 231 236 241 244 248 254 262 268 273 281 289 297 306 312 309 307 310 318 327 326 317 310 310 316 317 310 313 324 337 347 344 339 336 331 329 328
229 229 230 230 231 231 232 232 231 231 232 232 232 232 231 230 229 230 228 226 225 226 226 225 224 227 231 233 236 240 243 245 248 249 251 252 252 249 245 241 240 240 239 236 235 234 233 233 234 236 241 245 249 254 260 265 270 275 281 288 295 303 307 306 305 307 313 319 324 323 313 310 316 318 313 315 324 337 346 344 341 338 333 329 328
230 230 231 232 232 233 233 233 233 232 233 233 234 234 233 231 231 232 231 228 227 226 226 228 230 233 236 239 243 246 249 251 252 253 253 253 253 253 251 249 246 244 243 241 240 239 238 237 236 238 243 247 251 256 260 264 268 274 279 285 292 297 299 299 301 305 310 313 317 323 320 316 321 323 317 316 323 334 341 340 339 337 332 329 327
230 231 232 233 233 234 234 234 234 234 234 234 235 236 235 234 233 233 232 231 230 229 230 233 236 239 241 244 247 250 252 254 255 257 258 258 258 256 254 253 252 250 248 246 245 244 244 243 241 239 243 248 252 255 258 262 266 272 276 281 285 288 288 292 297 302 305 307 311 317 319 319 323 324 318 311 315 329 334 334 334 333 331 330 327
230 231 232 233 234 235 235 236 236 236 236 236 236 237 237 237 236 235 234 234 233 232 234 236 239 242 245 247 249 252 254 257 259 261 262 263 263 260 257 255 254 254 253 251 250 249 248 248 247 245 245 248 251 253 257 261 264 268 272 275 279 282 285 289 295 299 300 303 306 309 313 316 318 320 318 309 306 318 325 327 330 331 329 332 331
230 231 232 233 234 235 236 237 237 238 238 238 238 238 238 238 239 239 238 237 237 236 237 239 241 244 246 249 251 253 256 259 262 263 265 265 265 264 261 258 255 255 255 255 254 253 252 251 251 249 248 249 251 253 256 259 263 266 270 273 277 280 285 289 293 295 296 298 301 303 307 311 311 313 314 308 304 313 318 318 324 329 327 329 333
230 232 233 233 235 236 237 238 239 240 241 241 241 240 240 240 240 241 242 242 241 241 240 242 244 246 248 251 252 254 257 259 262 263 265 266 266 266 264 262 259 257 256 256 256 256 255 254 253 251 250 250 252 254 256 259 263 266 270 273 276 279 282 285 286 287 290 293 295 297 301 303 303 305 307 305 304 313 319 314 315 324 325 326 332
230 232 233 234 236 237 238 240 241 242 243 243 243 243 242 242 242 243 244 244 245 245 245 245 246 248 250 252 253 255 257 258 260 261 263 264 266 266 265 264 262 259 257 256 256 256 256 255 255 254 252 251 253 255 256 258 261 264 267 270 273 274 276 278 278 278 283 287 289 291 294 294 295 297 299 300 300 309 318 316 312 318 321 322 330
230 231 232 235 237 239 240 241 242 243 244 244 245 245 244 244 244 244 244 245 246 248 249 249 250 251 252 253 254 256 257 257 257 258 260 262 263 264 264 263 262 261 259 257 256 255 255 254 254 254 254 254 255 255 256 258 259 261 263 265 268 270 271 271 272 273 277 281 283 286 287 286 288 290 290 292 298 305 314 314 311 313 314 314 322
229 231 233 236 239 240 240 241 242 243 244 245 246 246 246 245 245 245 245 246 247 248 249 250 251 252 253 255 256 256 257 256 256 256 257 258 260 262 262 262 261 261 260 258 256 255 255 254 253 253 254 255 255 256 256 257 259 260 261 262 264 266 268 269 270 272 274 277 279 282 283 282 282 283 282 285 295 305 311 310 308 310 309 308 314
229 231 234 238 239 240 240 241 242 243 244 245 246 246 246 246 246 246 246 246 246 246 248 249 250 252 253 255 256 256 256 255 255 254 254 255 257 258 259 259 260 260 260 258 255 254 254 254 254 253 253 254 254 255 255 256 258 259 260 261 262 264 267 268 270 271 273 275 277 278 279 280 279 276 276 281 293 303 307 306 305 308 308 306 309
229 232 235 237 238 239 240 241 242 243 244 245 246 247 247 247 247 247 247 247 247 247 247 248 249 250 251 253 254 255 255 254 253 253 252 252 253 255 256 257 259 260 261 259 255 253 252 253 253 253 253 253 254 254 255 255 257 258 259 260 261 262 264 267 270 271 272 274 275 274 274 277 276 272 273 283 293 299 299 300 302 304 305 303 304
229 232 234 235 237 238 240 241 242 244 245 246 247 248 248 249 249 249 249 250 250 250 250 249 250 250 250 251 252 253 253 253 252 251 251 250 251 253 255 256 258 260 261 259 256 253 252 252 252 252 252 252 253 254 255 257 257 258 259 259 260 262 264 267 269 271 272 273 272 271 272 274 272 269 273 285 292 293 293 294 297 299 299 299 300
229 232 233 234 237 239 240 241 243 246 247 247 248 248 249 250 251 251 252 252 252 252 252 252 252 251 251 250 250 251 251 251 251 250 250 249 250 252 255 257 259 260 260 259 256 254 252 252 253 252 252 251 252 253 255 257 258 258 259 260 261 262 264 265 267 269 271 271 271 271 272 273 270 269 274 284 289 289 289 290 292 293 294 297 298
229 231 233 235 237 238 239 241 243 245 247 247 247 248 250 251 252 253 253 254 255 255 255 255 255 254 253 252 252 251 250 249 250 250 249 249 249 252 255 257 259 260 258 257 256 254 253 253 253 253 253 252 251 251 253 255 257 258 259 260 261 262 262 262 263 264 267 268 268 269 270 270 270 271 274 281 284 285 286 288 289 291 294 296 297
230 231 232 234 236 237 238 240 242 243 244 245 246 248 249 251 253 254 255 256 257 258 257 257 257 256 255 255 254 252 249 248 248 249 248 248 249 252 254 255 257 258 257 255 254 253 252 253 254 255 254 253 251 250 251 253 255 256 257 258 259 261 260 260 261 262 263 264 265 266 266 267 268 269 272 276 279 281 283 285 287 291 294 294 294
229 230 232 233 235 236 237 238 240 241 242 242 244 246 248 251 253 254 255 256 257 258 259 259 258 258 258 257 255 252 248 246 247 247 247 247 250 251 252 253 254 255 254 253 253 252 251 252 253 255 255 255 253 251 252 253 255 255 256 257 258 259 260 259 260 261 262 264 264 265 265 266 266 268 270 272 275 278 280 282 285 289 291 290 292
221 225 229 232 234 235 236 237 238 239 240 241 243 245 246 250 253 254 255 257 258 259 261 261 261 260 259 259 257 254 250 246 246 246 246 247 249 251 251 252 253 254 253 252 252 252 251 251 252 254 255 255 254 253 252 254 255 255 256 258 259 259 259 259 260 261 262 264 265 265 266 266 267 268 269 271 274 275 277 279 282 286 287 288 292
211 215 219 225 230 233 235 237 238 238 240 242 245 246 245 246 248 251 252 253 256 258 259 261 262 261 261 260 260 258 254 249 245 245 245 246 248 249 250 251 252 252 253 253 253 253 251 250 250 251 253 254 254 253 252 254 256 255 257 260 261 260 259 260 263 264 265 266 267 267 267 266 266 267 268 268 270 271 273 276 280 283 286 288 292
203 207 212 215 219 225 230 233 236 239 241 244 246 247 246 243 243 246 248 247 250 254 257 259 261 260 260 260 260 260 258 253 248 245 244 245 246 248 249 250 250 250 252 253 254 254 252 250 249 249 251 253 253 252 252 254 255 255 257 260 260 260 262 264 266 267 269 269 270 269 267 265 264 264 264 264 264 266 269 273 278 283 286 288 290
205 204 212 215 216 219 222 227 232 237 240 245 247 248 247 244 244 248 252 250 249 251 253 255 257 255 255 257 259 260 259 257 252 248 246 245 245 247 248 248 248 249 251 252 252 252 252 250 248 248 249 252 253 253 253 255 256 258 259 260 261 263 265 267 268 269 270 269 269 268 266 264 263 263 263 263 264 267 270 273 278 283 285 286 286
233 213 215 219 220 221 222 225 229 233 236 239 243 245 246 246 246 249 254 255 252 252 252 254 255 255 253 254 257 258 259 259 257 253 250 248 247 247 247 247 247 249 250 251 250 250 250 248 247 247 248 250 252 253 254 256 260 262 263 264 266 268 269 269 269 269 268 266 266 266 265 263 263 263 263 264 266 269 273 277 282 284 283 281 279
302 246 233 227 221 220 223 226 230 234 237 239 241 242 243 244 244 245 250 254 254 253 254 254 256 257 256 255 256 257 258 257 257 256 253 250 249 247 247 248 248 249 250 250 250 249 249 247 245 245 246 249 251 252 254 258 262 266 267 268 270 271 270 267 267 268 268 266 265 264 263 263 264 264 264 265 268 273 278 282 283 281 276 274 273
312 297 274 258 234 223 223 225 226 230 235 238 239 238 237 238 239 242 246 250 252 252 253 254 256 257 257 256 256 256 256 256 256 256 255 253 251 248 247 247 248 248 249 249 250 249 248 247 246 246 247 250 253 254 256 259 262 265 266 267 268 269 268 266 267 270 271 269 267 266 265 264 266 267 268 271 274 277 279 279 277 273 270 269 270
305 319 302 271 245 234 232 229 227 228 231 233 234 234 232 231 233 238 243 246 248 250 251 252 254 255 257 257 256 256 256 256 256 256 256 255 253 250 248 247 248 248 248 248 248 248 248 249 249 249 250 252 255 257 258 259 261 263 264 264 264 264 264 265 267 270 271 271 272 272 270 270 272 274 276 278 278 276 275 274 270 266 264 265 266
305 313 310 277 244 234 233 232 233 235 236 236 236 236 234 231 231 236 240 243 246 249 250 250 251 252 254 256 257 257 257 256 256 256 256 256 255 254 252 251 250 250 249 249 249 249 250 251 251 252 253 254 256 258 259 260 261 263 262 262 261 261 261 263 266 269 271 273 275 277 278 280 281 281 280 278 276 274 273 269 263 259 260 263 267
314 308 306 290 257 237 230 228 230 234 238 240 241 240 237 233 232 235 239 241 245 247 249 249 249 249 250 253 255 257 258 257 257 256 255 256 256 257 256 255 252 250 249 248 248 249 248 249 251 252 253 254 256 258 260 261 261 260 259 259 259 260 261 263 266 269 272 274 277 279 281 283 283 282 279 276 274 271 266 260 257 256 258 262 267
325 318 311 301 279 254 239 231 227 228 231 236 239 239 235 233 235 239 242 243 245 247 248 249 249 249 250 251 253 256 259 259 258 257 257 258 259 259 259 257 254 251 249 247 247 248 249 249 249 250 251 252 255 256 258 259 260 260 260 259 260 260 262 265 267 268 270 273 276 280 282 283 284 284 280 275 271 265 257 253 254 256 259 263 266
328 326 322 318 302 276 256 243 235 231 231 232 236 237 236 237 243 249 250 250 249 249 249 249 251 252 253 252 252 254 258 262 263 263 263 263 262 261 261 261 260 258 256 253 252 251 250 248 248 248 248 250 252 254 256 257 259 260 261 261 261 262 263 263 264 265 267 271 275 278 280 281 280 280 277 272 267 260 253 251 254 257 261 263 266
328 328 326 324 317 300 278 257 244 240 241 241 240 240 240 244 249 253 254 253 251 250 250 251 253 256 257 258 258 258 261 268 273 272 270 270 268 266 266 267 268 267 265 261 256 252 250 248 247 247 248 249 250 252 254 256 258 259 260 261 262 262 261 261 261 263 265 265 266 267 269 270 271 271 270 268 265 259 253 250 253 257 259 261 265
330 328 324 319 313 308 299 277 255 247 249 252 252 249 247 248 250 252 254 253 251 250 250 252 255 258 259 261 263 265 267 270 272 270 269 270 271 270 269 269 269 269 268 263 257 252 250 249 248 248 249 250 251 252 254 256 258 259 260 261 261 260 260 261 261 262 261 260 260 261 262 263 265 264 263 264 266 266 261 255 252 254 256 257 259
331 326 319 313 307 305 304 295 274 256 250 251 254 254 251 248 248 250 251 252 252 251 251 252 254 256 258 260 262 264 265 267 268 268 267 268 269 270 270 269 270 270 268 263 258 254 251 250 249 249 250 251 252 253 254 256 258 260 261 262 261 260 260 261 262 263 263 263 264 265 265 263 262 261 260 260 261 265 266 262 257 254 253 250 249
332 328 321 316 314 312 307 299 284 266 253 247 247 249 248 245 247 250 251 250 251 251 251 251 252 254 257 259 261 262 264 265 266 266 265 265 265 267 269 270 270 268 265 261 258 256 253 251 250 250 251 252 253 254 255 257 259 261 262 262 261 260 260 262 264 265 265 265 264 263 261 258 256 257 258 257 254 257 263 265 259 252 246 242 242
329 329 327 323 321 319 314 300 283 270 259 247 240 240 241 241 245 253 255 253 251 250 251 252 253 255 257 258 259 260 261 262 263 263 264 264 264 265 267 267 265 263 261 258 257 256 255 253 252 252 252 253 255 255 256 256 257 258 260 260 259 259 261 263 265 266 268 267 265 261 256 252 250 253 255 254 251 252 257 262 259 250 241 239 240
322 323 325 325 323 320 315 303 290 278 269 256 243 237 236 236 238 244 251 254 255 255 254 254 254 255 256 257 258 260 261 262 262 263 263 263 263 262 261 260 259 258 257 257 256 256 255 254 253 253 253 254 255 256 256 255 255 255 256 257 258 259 261 263 265 267 269 270 267 261 255 251 252 256 258 255 250 248 251 254 253 246 240 238 239
313 317 320 324 326 323 318 309 298 287 278 267 255 245 240 238 238 238 241 246 252 256 256 255 254 255 257 258 260 261 262 262 262 262 263 263 262 259 257 257 258 258 259 259 259 259 258 257 256 255 254 254 255 255 254 253 254 255 255 255 256 257 259 261 263 266 270 271 267 260 255 253 252 253 254 251 246 245 246 247 245 242 239 238 238
308 313 316 321 325 326 323 317 308 297 287 278 268 257 249 244 242 241 241 241 243 247 250 253 256 259 259 258 259 261 263 262 262 261 261 260 259 257 257 257 258 260 261 261 261 261 261 260 259 258 257 256 255 255 254 254 255 256 256 256 256 257 258 260 263 266 270 271 265 259 257 255 250 247 245 243 241 242 244 244 243 240 238 240 243
306 312 313 315 319 325 326 323 317 309 300 290 282 273 263 254 247 244 244 243 243 244 246 249 253 257 258 259 261 265 267 266 265 262 260 259 258 258 258 259 259 259 260 262 262 262 263 262 261 260 259 258 257 256 256 256 257 257 257 256 257 258 260 262 264 266 269 268 262 256 253 251 245 241 240 239 238 239 241 242 242 239 236 238 246
302 308 309 309 312 320 328 329 326 321 314 303 293 286 279 270 261 254 249 247 246 246 247 249 250 252 254 257 262 265 266 265 264 264 263 263 263 262 261 260 259 259 260 261 262 263 263 263 262 261 260 259 257 256 256 257 257 256 256 257 258 259 260 262 263 265 266 264 259 253 249 243 239 238 238 238 238 241 244 247 249 248 244 243 245
299 305 306 306 308 316 327 334 336 333 330 322 309 297 289 283 277 270 262 256 253 251 251 252 252 251 251 254 259 263 266 266 266 266 267 267 267 266 264 262 261 261 261 261 262 264 264 264 263 261 259 257 256 255 255 256 256 256 256 256 257 257 258 259 259 258 257 256 251 245 241 240 240 239 240 241 244 249 253 254 254 253 253 250 243
296 302 304 305 308 314 322 329 334 337 338 335 327 313 298 288 283 280 275 271 266 263 261 260 258 258 257 258 259 263 266 267 266 266 266 266 267 267 266 265 264 264 263 262 262 263 263 263 263 260 258 256 255 255 256 256 256 256 256 255 256 257 258 258 257 252 246 241 239 237 237 239 240 241 242 245 252 256 253 246 240 239 241 240 233
293 299 304 305 307 311 317 321 325 330 332 332 331 327 316 301 288 280 276 274 273 271 271 270 269 267 266 265 265 266 268 268 267 265 264 264 264 266 267 268 267 266 266 265 264 263 262 261 261 260 259 258 256 257 258 258 257 257 256 256 258 259 258 257 256 249 238 230 230 234 238 239 240 241 242 246 253 254 242 225 219 222 225 224 223
289 297 304 306 308 311 315 318 322 325 327 328 329 330 327 320 306 291 281 274 269 266 266 268 269 268 265 263 264 266 269 270 269 268 266 264 262 262 264 265 265 264 265 266 267 266 263 262 261 260 260 259 257 257 258 257 257 256 256 256 258 258 256 254 250 241 230 226 228 234 239 240 239 238 239 239 241 239 228 218 219 223 222 220 219
287 294 301 305 308 312 316 318 320 323 327 330 330 329 328 327 320 308 295 285 277 269 264 262 263 263 263 262 263 265 268 269 269 269 269 268 264 260 258 259 260 261 261 263 264 264 262 260 260 259 259 258 257 257 256 255 254 254 254 254 255 255 254 253 247 236 227 228 233 236 237 236 232 230 229 227 224 220 216 216 219 220 220 221 223
290 293 298 302 307 313 318 321 322 324 328 332 331 330 329 329 326 321 312 301 292 284 276 271 268 267 268 267 267 269 271 271 271 271 271 271 269 265 263 261 262 262 262 263 264 264 262 262 263 263 262 260 257 255 254 254 254 253 254 254 253 252 248 244 237 231 228 231 233 230 230 229 226 222 221 218 214 212 212 214 216 219 222 226 229
298 298 299 302 309 315 320 324 324 324 327 331 333 333 332 330 328 328 325 317 309 302 296 289 284 280 278 276 272 269 268 268 268 268 269 268 267 265 264 264 263 262 262 262 262 261 260 259 259 258 257 256 254 252 252 252 251 251 250 247 242 237 229 220 214 213 217 220 221 222 225 227 225 223 220 217 216 216 216 216 219 221 222 224 224
310 308 306 308 313 319 324 326 325 324 327 332 335 338 339 337 334 333 331 326 321 315 310 304 298 290 284 279 273 267 263 259 258 258 259 258 257 255 255 257 258 258 257 256 256 255 252 248 246 245 245 246 247 246 246 246 246 245 240 229 217 209 204 200 199 200 203 204 206 213 220 223 223 223 221 219 217 217 216 215 217 218 218 218 218
322 321 317 317 321 326 329 331 330 330 334 339 342 345 346 344 341 339 336 331 326 320 314 309 301 291 279 270 263 258 254 251 250 247 246 245 245 245 246 247 249 251 251 250 249 247 244 239 235 233 233 233 233 231 228 226 226 223 213 200 194 193 192 190 189 189 189 191 195 203 210 215 219 219 216 212 212 213 212 212 212 211 210 211 210
332 330 326 327 331 333 337 342 344 343 345 348 351 353 353 351 349 348 346 342 334 325 317 310 302 292 281 270 263 257 251 247 243 238 234 233 233 233 235 236 237 238 240 238 235 232 230 224 218 216 215 212 207 201 197 193 191 189 185 179 178 182 186 187 187 186 182 178 179 186 193 198 202 204 202 200 202 204 203 203 204 204 203 205 205
331 327 326 329 336 342 348 352 353 351 351 355 1 4 5 3 0 359 358 355 347 339 331 322 314 303 284 252 240 246 249 248 245 240 235 229 220 211 206 204 205 206 207 206 202 197 193 188 183 180 179 175 171 172 177 177 172 170 169 167 167 170 173 175 175 175 171 165 162 169 179 184 188 194 195 192 192 194 193 193 197 200 201 204 206
318 320 328 332 337 349 360 3 2 3 5 9 14 18 22 22 19 16 15 18 19 15 6 1 82 146 153 153 150 150 155 161 173 188 199 202 197 184 166 158 160 163 162 160 160 160 160 160 158 155 155 155 156 158 160 162 162 161 160 156 155 157 161 162 161 159 155 152 152 160 172 179 184 191 193 190 191 196 196 195 197 202 205 209 215